[[{"header":{"parameterUnit":"m.s-1","parameterCategory":1,"la1":30.2991,"la2":30.254,"lo1":-89.0895,"lo2":-89.0444,"dy":0.0017,"dx":0.0017,"nx":28,"ny":28,"refTime":"2023-04-22T21:00:00:Z","depth":0,"parameterNumber":2,"parameterNumberName":"U-component_of_WINDS"},"data":[0,0,0,0,0,0,0,0,0,0,0,0,0,0,0,0,0,0,0,0,0,0,0,0,0,0,0,0,0,0,0,0,0,0,0,0,0,0,0,0,0,0,0,0,0,0,0,0,0,0,0,0,0,0,0,0,0,0,-2.9309,-2.9309,0,-2.9339,-2.9339,-2.9339,-2.9249,-2.9246,-2.9244,-2.9241,-2.9275,-2.9279,-2.9282,0,0,0,0,0,0,0,0,0,0,0,0,0,-2.9178,-2.9181,-2.9309,-2.9309,-2.931,-2.9338,-2.9339,-2.9339,-2.925,-2.9246,-2.9243,-2.924,-2.9274,-2.9278,-2.9282,0,0,0,0,0,0,0,0,0,0,0,0,0,-2.9224,-2.9182,-2.9309,-2.9268,-2.9265,-2.9338,-2.9339,-2.9339,-2.925,-2.9246,-2.9242,-2.9238,-2.9273,-2.9278,-2.9283,-2.9398,0,0,-2.9299,-2.9301,0,0,0,0,0,0,0,0,-2.9222,-2.9229,-2.9274,-2.9271,-2.9268,-2.9286,-2.9305,-2.9359,-2.9251,-2.9256,-2.9241,-2.9236,-2.9282,-2.9287,-2.9301,-2.94,-2.9402,-2.93,-2.9303,-2.9305,-2.9306,0,0,0,0,0,0,0,-2.9218,-2.9227,-2.9321,-2.9275,-2.9271,-2.925,-2.9252,-2.9315,-2.9292,-2.9255,-2.9249,-2.9253,-2.928,-2.9297,-2.9302,-2.9402,-2.9299,-2.9304,-2.9307,-2.9309,-2.9597,-2.9601,0,0,0,0,0,0,-2.922,-2.9225,-2.932,-2.9322,-2.9234,-2.9255,-2.9257,-2.9284,-2.9291,-2.9288,-2.9257,-2.9249,-2.929,-2.9296,-2.9302,-2.9438,-2.9305,-2.931,-2.9313,-2.9593,-2.9598,-2.9603,0,0,0,0,0,0,-2.9218,-2.9229,-2.9319,-2.9272,-2.9281,-2.9262,-2.9293,-2.9287,-2.9303,-2.9292,-2.9288,-2.9278,-2.9287,-2.9295,-2.9375,-2.9438,-2.9312,-2.9317,-2.9587,-2.9594,-2.9601,-2.9712,0,0,0,0,0,0,-2.9214,-2.9229,-2.9272,-2.9273,-2.9284,-2.939,-2.9297,-2.9291,-2.9312,-2.9302,-2.9311,-2.9309,-2.9284,-2.9368,-2.938,-2.9443,-2.9321,-2.9582,-2.959,-2.9598,-2.9702,-2.9721,-2.9738,0,0,0,0,0,-2.921,-2.9303,-2.9275,-2.9287,-2.9337,-2.9394,-2.94,-2.9369,-2.9318,-2.9361,-2.9354,-2.9308,-2.9429,-2.9377,-2.939,-2.9456,-2.9577,-2.9588,-2.9598,-2.9694,-2.9717,-2.9737,0,0,0,0,0,0,-2.9311,-2.9302,-2.9271,-2.9367,-2.9382,-2.9379,-2.9433,-2.9395,-2.9426,-2.9415,-2.9376,-2.9379,-2.9466,-2.9468,-2.941,-2.9568,-2.9495,-2.9508,-2.9563,-2.9585,-2.9603,-2.9601,-2.9325,0,0,0,0,0,-2.9345,-2.939,-2.938,-2.9466,-2.9475,-2.9453,-2.9476,-2.9451,-2.9465,-2.9471,-2.947,-2.9487,-2.9528,-2.9556,-2.9594,-2.9701,-2.9703,-2.9753,-2.9771,-2.9785,-2.9798,-2.9855,-2.9878,-2.9636,-2.9636,-2.9636,0,0,-2.9415,-2.9415,-2.9447,-2.9486,-2.9495,-2.9544,-2.9459,-2.9514,-2.9551,-2.948,-2.9555,-2.9555,-2.9571,-2.9665,-2.9707,-2.967,-2.9865,-2.9798,-2.981,-2.9815,-2.9868,-2.9891,-2.9912,-2.9643,-2.9642,-2.9641,0,0,-2.9567,-2.9572,-2.9644,-2.9654,-2.9667,-2.9651,-2.9669,-2.9671,-2.9668,-2.9742,-2.969,-2.9733,-2.9806,-2.9819,-2.9836,-2.9993,-2.9952,-3.0006,-3.0099,-3.0156,-3.0175,-3.0192,-3.0249,-3.027,-3.0018,-3.0018,-3.0019,0,-2.9653,-2.9724,-2.9686,-2.9745,-2.9765,-2.9701,-2.9774,-2.9786,-2.9812,-2.9827,-2.9785,-2.9874,-2.988,-2.9977,-3.0015,-3.003,-3.005,-3.0006,-3.0175,-3.0191,-3.0206,-3.026,-3.0282,-3.0025,-3.0024,-3.0023,-3.0023,0,-2.9829,-2.9879,-2.9936,-2.9961,-2.9986,-3.0052,-3.0026,-3.0056,-3.0028,-3.0017,-3.0095,-3.0099,-3.0137,-3.0158,-3.0131,-3.0251,-3.0228,-3.0181,-3.0107,-3.0237,-3.0287,-3.0307,-3.0034,-3.0032,-3.003,-3.0028,0,0,-3.0048,-3.005,-3.0072,-3.0082,-3.0092,-3.013,-3.0194,-3.0229,-3.0257,-3.0276,-3.0329,-3.0391,-3.0347,-3.0366,-3.0341,-3.039,-3.0515,-3.0337,-3.0337,-3.0371,-3.0649,-3.0685,-3.071,-3.0487,-3.0491,-3.0494,-3.0648,0,-3.02,-3.0307,-3.0274,-3.0383,-3.0429,-3.0369,-3.0424,-3.0436,-3.0428,-3.0466,-3.0457,-3.0502,-3.044,-3.0451,-3.0497,-3.049,-3.0571,-3.0479,-3.0538,-3.0541,-3.0538,-3.0736,-3.0775,-3.092,-3.0667,-3.067,-3.0673,0,-3.0391,-3.0416,-3.0529,-3.0531,-3.0549,-3.0599,-3.0629,-3.0666,-3.0679,-3.0669,-3.069,-3.0654,-3.0717,-3.0641,-3.0729,-3.0667,-3.0689,-3.0689,-3.0694,-3.07,-3.0616,-3.0749,-3.0965,-3.0987,-3.0703,-3.0701,-3.0698,0,-3.0541,-3.0604,-3.0679,-3.069,-3.0693,-3.073,-3.0733,-3.0742,-3.0765,-3.0791,-3.0806,-3.084,-3.0859,-3.0887,-3.0861,-3.0808,-3.0953,-3.0875,-3.0948,-3.0949,-3.0983,-3.0982,-3.1208,-3.0995,-3.0994,-3.0994,-3.0994,0,-3.0714,-3.0786,-3.0747,-3.0794,-3.0873,-3.0834,-3.0914,-3.091,-3.0918,-3.0964,-3.0914,-3.0958,-3.0921,-3.0963,-3.0943,-3.1019,-3.1028,-3.1023,-3.1017,-3.1028,-3.1029,-3.1043,-3.1033,-3.1,-3.0999,-3.0997,-3.0996,0,-3.0896,-3.0873,-3.0951,-3.0947,-3.0948,-3.1006,-3.1003,-3.1047,-3.1034,-3.1093,-3.1104,-3.1085,-3.1131,-3.1107,-3.1156,-3.1142,-3.1241,-3.1221,-3.1237,-3.1232,-3.1307,-3.1301,-3.1552,-3.1583,-3.1349,-3.1351,-3.1353,0,-3.1009,-3.1063,-3.1064,-3.1091,-3.1097,-3.114,-3.1163,-3.1128,-3.1154,-3.1172,-3.1214,-3.1255,-3.1287,-3.1363,-3.1354,-3.1391,-3.1372,-3.1458,-3.1378,-3.1387,-3.1375,-3.1373,-3.1379,-3.1475,-3.1477,-3.1479,-3.1481,0,-3.1213,-3.1198,-3.1233,-3.1263,-3.1292,-3.1315,-3.1333,-3.1358,-3.1323,-3.1355,-3.1401,-3.1425,-3.1473,-3.1516,-3.1547,-3.1552,-3.1512,-3.1506,-3.1525,-3.1538,-3.1546,-3.1544,-3.1282,-3.1501,-3.1499,-3.1498,-3.1497,-3.1496,-3.1365,-3.141,-3.1417,-3.1458,-3.1467,-3.1486,-3.1527,-3.1518,-3.1555,-3.1591,-3.1568,-3.1622,-3.1633,-3.1671,-3.1681,-3.1723,-3.169,-3.1717,-3.1724,-3.1732,-3.1743,-3.1537,-3.1729,-3.1728,-3.1728,-3.1727,-3.1727,0,-3.1567,-3.1568,-3.1605,-3.1632,-3.1664,-3.1621,-3.1639,-3.167,-3.1717,-3.1731,-3.1762,-3.1815,-3.1855,-3.1849,-3.1886,-3.1921,-3.1904,-3.1932,-3.193,-3.1932,-3.177,-3.1751,-3.1946,-3.1946,-3.1946,-3.1946,-3.1946,-3.1946,-3.1676,-3.175,-3.1736,-3.1814,-3.1815,-3.1867,-3.1881,-3.1898,-3.1909,-3.197,-3.2002,-3.1997,-3.2003,-3.204,-3.2075,-3.2072,-3.2089,-3.2125,-3.2116,-3.1965,-3.1943,-3.1923,-3.1904,-3.2128,-3.2129,-3.2274,-3.2275,-3.2276]},{"header":{"parameterUnit":"m.s-1","parameterCategory":1,"la1":30.2991,"la2":30.254,"lo1":-89.0895,"lo2":-89.0444,"dy":0.0017,"dx":0.0017,"nx":28,"ny":28,"refTime":"2023-04-22T21:00:00:Z","depth":0,"parameterNumber":3,"parameterNumberName":"V-component_of_WINDS"},"data":[0,0,0,0,0,0,0,0,0,0,0,0,0,0,0,0,0,0,0,0,0,0,0,0,0,0,0,0,0,0,0,0,0,0,0,0,0,0,0,0,0,0,0,0,0,0,0,0,0,0,0,0,0,0,0,0,0,0,-2.561,-2.5611,0,-2.5652,-2.5653,-2.5653,-2.563,-2.5629,-2.5628,-2.5627,-2.5669,-2.5672,-2.5674,0,0,0,0,0,0,0,0,0,0,0,0,0,-2.551,-2.5512,-2.561,-2.5611,-2.5611,-2.5652,-2.5653,-2.5653,-2.563,-2.5629,-2.5627,-2.5626,-2.5669,-2.5671,-2.5674,0,0,0,0,0,0,0,0,0,0,0,0,0,-2.5553,-2.5512,-2.561,-2.5605,-2.5605,-2.5652,-2.5653,-2.5653,-2.5631,-2.5629,-2.5627,-2.5626,-2.5668,-2.5671,-2.5674,-2.5729,0,0,-2.5684,-2.5686,0,0,0,0,0,0,0,0,-2.555,-2.5556,-2.5605,-2.5605,-2.5605,-2.5634,-2.5633,-2.5679,-2.5631,-2.5621,-2.5627,-2.5625,-2.5659,-2.5663,-2.5675,-2.5731,-2.5733,-2.5685,-2.5687,-2.5688,-2.5689,0,0,0,0,0,0,0,-2.5547,-2.5554,-2.5627,-2.5606,-2.5606,-2.56,-2.5604,-2.5641,-2.5649,-2.5621,-2.562,-2.5625,-2.5659,-2.5672,-2.5675,-2.5734,-2.5685,-2.5688,-2.569,-2.5691,-2.5837,-2.5839,0,0,0,0,0,0,-2.5545,-2.5552,-2.5625,-2.5628,-2.5573,-2.5603,-2.5608,-2.5627,-2.5649,-2.565,-2.5627,-2.5624,-2.5667,-2.5672,-2.5677,-2.5742,-2.5688,-2.5691,-2.5693,-2.5835,-2.5838,-2.584,0,0,0,0,0,0,-2.5543,-2.5552,-2.5624,-2.559,-2.5598,-2.5607,-2.5628,-2.5628,-2.5641,-2.5652,-2.5654,-2.5638,-2.5666,-2.5672,-2.5716,-2.5743,-2.5693,-2.5696,-2.5833,-2.5836,-2.5839,-2.5873,0,0,0,0,0,0,-2.554,-2.5551,-2.5572,-2.559,-2.56,-2.5662,-2.563,-2.563,-2.5647,-2.5644,-2.5664,-2.5665,-2.5665,-2.5711,-2.572,-2.5747,-2.5698,-2.5831,-2.5834,-2.5838,-2.587,-2.5877,-2.5883,0,0,0,0,0,-2.5536,-2.558,-2.5573,-2.5582,-2.5627,-2.5664,-2.567,-2.5668,-2.5649,-2.567,-2.5677,-2.5665,-2.5739,-2.5716,-2.5725,-2.5754,-2.5829,-2.5833,-2.5837,-2.5867,-2.5876,-2.5883,0,0,0,0,0,0,-2.5564,-2.5582,-2.5575,-2.5626,-2.5644,-2.566,-2.5686,-2.5678,-2.5701,-2.5697,-2.5695,-2.5699,-2.5745,-2.5754,-2.5728,-2.5808,-2.5781,-2.5787,-2.58,-2.5809,-2.5815,-2.5812,-2.5701,0,0,0,0,0,-2.5576,-2.5605,-2.562,-2.5663,-2.5672,-2.5678,-2.5694,-2.5692,-2.571,-2.5717,-2.5728,-2.5746,-2.5774,-2.5792,-2.5818,-2.5871,-2.5875,-2.5896,-2.5902,-2.5908,-2.5913,-2.5941,-2.595,-2.5854,-2.5854,-2.5854,0,0,-2.5601,-2.5615,-2.5633,-2.5669,-2.5682,-2.5712,-2.5685,-2.5717,-2.5739,-2.5722,-2.5764,-2.5773,-2.5793,-2.5842,-2.5864,-2.5851,-2.5941,-2.5913,-2.5917,-2.592,-2.5947,-2.5956,-2.5964,-2.5857,-2.5856,-2.5856,0,0,-2.5662,-2.5676,-2.5713,-2.5727,-2.5748,-2.5752,-2.5761,-2.5779,-2.5784,-2.5827,-2.5814,-2.5841,-2.5888,-2.5903,-2.5917,-2.5984,-2.5973,-2.5993,-2.6027,-2.6055,-2.6063,-2.6069,-2.6093,-2.6101,-2.5998,-2.5998,-2.5998,0,-2.5691,-2.5735,-2.5733,-2.5767,-2.5783,-2.5769,-2.5807,-2.5821,-2.5849,-2.5861,-2.5846,-2.5905,-2.5918,-2.597,-2.5986,-2.5998,-2.6008,-2.599,-2.6062,-2.6068,-2.6075,-2.6097,-2.6106,-2.6,-2.6,-2.6,-2.5999,0,-2.5769,-2.58,-2.5828,-2.5856,-2.5875,-2.591,-2.5914,-2.5933,-2.5929,-2.5935,-2.5978,-2.5993,-2.6021,-2.6034,-2.603,-2.6085,-2.6076,-2.6062,-2.6034,-2.6086,-2.6107,-2.6115,-2.6003,-2.6002,-2.6002,-2.6001,0,0,-2.5847,-2.5874,-2.5884,-2.5897,-2.5919,-2.5943,-2.5978,-2.6006,-2.6023,-2.6043,-2.6072,-2.6113,-2.61,-2.6115,-2.6113,-2.6138,-2.619,-2.612,-2.6121,-2.6132,-2.6251,-2.6261,-2.6271,-2.6183,-2.6184,-2.6186,-2.6249,0,-2.5909,-2.597,-2.597,-2.6026,-2.6055,-2.6043,-2.6073,-2.609,-2.6096,-2.6121,-2.6128,-2.6157,-2.6137,-2.6146,-2.617,-2.6178,-2.6213,-2.6174,-2.6209,-2.6211,-2.6204,-2.6282,-2.6293,-2.6351,-2.6257,-2.6258,-2.6259,0,-2.5989,-2.6012,-2.6071,-2.6089,-2.6101,-2.6129,-2.6154,-2.6179,-2.6198,-2.62,-2.6218,-2.6213,-2.6248,-2.6221,-2.627,-2.6243,-2.6258,-2.6264,-2.6266,-2.6269,-2.6237,-2.6286,-2.637,-2.6379,-2.6272,-2.6271,-2.627,0,-2.6039,-2.6085,-2.6126,-2.6137,-2.616,-2.6179,-2.6189,-2.6207,-2.6224,-2.6247,-2.6257,-2.6284,-2.6299,-2.6319,-2.6321,-2.6301,-2.637,-2.6343,-2.6373,-2.6373,-2.6387,-2.6386,-2.6475,-2.6399,-2.6399,-2.6398,-2.6398,0,-2.6107,-2.6143,-2.6149,-2.6174,-2.6215,-2.6214,-2.6255,-2.6263,-2.6279,-2.6306,-2.6297,-2.6323,-2.6324,-2.635,-2.6352,-2.6392,-2.6398,-2.6401,-2.6401,-2.6402,-2.6401,-2.641,-2.6406,-2.6401,-2.64,-2.64,-2.6399,0,-2.6169,-2.6174,-2.6218,-2.6236,-2.6242,-2.6271,-2.6286,-2.631,-2.6316,-2.635,-2.6358,-2.6367,-2.6397,-2.6401,-2.6436,-2.6437,-2.6485,-2.6481,-2.6479,-2.6478,-2.6507,-2.6504,-2.6604,-2.6617,-2.6533,-2.6534,-2.6535,0,-2.6212,-2.624,-2.6261,-2.6278,-2.6289,-2.6317,-2.6335,-2.6336,-2.6354,-2.6378,-2.6399,-2.6429,-2.6452,-2.6501,-2.6511,-2.6538,-2.6534,-2.6567,-2.6538,-2.6537,-2.6533,-2.6531,-2.6534,-2.6572,-2.6573,-2.6574,-2.6574,0,-2.6286,-2.6288,-2.6313,-2.6339,-2.636,-2.6381,-2.6401,-2.6415,-2.6419,-2.644,-2.6471,-2.6489,-2.6525,-2.6554,-2.6581,-2.6592,-2.6584,-2.6584,-2.6592,-2.6592,-2.6589,-2.659,-2.6493,-2.6581,-2.658,-2.658,-2.658,-2.6579,-2.6339,-2.6363,-2.6382,-2.641,-2.6425,-2.6444,-2.6468,-2.6476,-2.6502,-2.6531,-2.6531,-2.6564,-2.6583,-2.6618,-2.6631,-2.6658,-2.6647,-2.6659,-2.6662,-2.6664,-2.6667,-2.6586,-2.6663,-2.6663,-2.6662,-2.6662,-2.6662,0,-2.6413,-2.6424,-2.6451,-2.6478,-2.6501,-2.6492,-2.6513,-2.6532,-2.6562,-2.658,-2.6604,-2.6639,-2.6668,-2.668,-2.6708,-2.6727,-2.6724,-2.6734,-2.6732,-2.6734,-2.6676,-2.6665,-2.6736,-2.6736,-2.6736,-2.6736,-2.6736,-2.6736,-2.6453,-2.6493,-2.6497,-2.6545,-2.6556,-2.6589,-2.6602,-2.6619,-2.6633,-2.6673,-2.6697,-2.6705,-2.6721,-2.675,-2.6776,-2.6779,-2.6789,-2.6801,-2.6802,-2.6746,-2.6739,-2.6731,-2.6722,-2.6803,-2.6803,-2.6858,-2.6859,-2.6859]}]]